Muncie, IN

1:13 AM EST on February 08, 2016 (GMT -0500)
Delaware County-Johnson

Weather History for KMIE - April, 2014

Change the Weather History Date:

Monday, April 28, 2014

  Actual Average Record
Temperature  
Mean Temperature 55 °F 56 °F  
Max Temperature 63 °F 66 °F 84 °F (1986)
Min Temperature 46 °F 46 °F 30 °F (1992)
Degree Days  
Heating Degree Days 10 10  
Month to date heating degree days 386 403  
Since 1 July heating degree days 6248 5573  
Cooling Degree Days 0 1  
Month to date cooling degree days 6 11  
Year to date cooling degree days 6 12  
Growing Degree Days 4 (Base 50)    
Moisture  
Dew Point 48 °F    
Average Humidity 77    
Maximum Humidity 93    
Minimum Humidity 61    
Precipitation  
Precipitation 0.87 in 0.12 in 0.98 in (1975)
Month to date precipitation 6.04 3.42  
Year to date precipitation 10.53 10.91  
Sea Level Pressure  
Sea Level Pressure 29.70 in    
Wind  
Wind Speed 14 mph (East)    
Max Wind Speed 30 mph    
Max Gust Speed 35 mph    
Visibility 4 miles    
Events Rain , Thunderstorm    
T = Trace of Precipitation, MM = Missing Value Source: NWS Daily Summary

Daily Weather History Graph

Daily Weather History Graph

Search for Another Location

Airport or City:

Trip Planner

Search our weather history database for the weather conditions in past years. The results will help you decide how hot, cold, wet, or windy it might be!

Date:

Astronomy

Apr. 28, 2014 Rise Set
Actual Time 6:45 AM EDT 8:33 PM EDT
Civil Twilight 6:15 AM EDT 9:03 PM EDT
Nautical Twilight 5:40 AM EDT 9:38 PM EDT
Astronomical Twilight 5:02 AM EDT 10:16 PM EDT
Moon 6:22 AM EDT (4/28) 8:10 PM EDT (4/28)
Length of Visible Light 14h 47m
Length of Day
13h 48m
Waning Crescent, 0% of the Moon is Illuminated
Apr 28
Waning Crescent
Apr 29
New
May 6
First Quarter
May 14
Full
May 21
Last Quarter

Hourly Weather History & Observations

Time (EDT) Temp. Windchill Dew Point Humidity Pressure Visibility Wind Dir Wind Speed Gust Speed Precip Events Conditions
4:53 AM 48.9 °F - 37.0 °F 64% 29.78 in 10.0 mi East 15.0 mph - N/A   Mostly Cloudy
5:53 AM 50.0 °F - 37.9 °F 63% 29.75 in 10.0 mi East 17.3 mph 24.2 mph N/A   Overcast
6:53 AM 48.9 °F - 39.9 °F 71% 29.74 in 10.0 mi East 13.8 mph - 0.01 in Rain Light Rain
7:53 AM 46.9 °F - 42.1 °F 83% 29.75 in 5.0 mi East 12.7 mph - 0.14 in Rain Light Rain
8:53 AM 46.9 °F - 43.0 °F 86% 29.75 in 3.0 mi ENE 9.2 mph - 0.07 in Rain Rain
9:03 AM 46.9 °F - 43.0 °F 86% 29.77 in 2.0 mi ENE 6.9 mph - 0.03 in Rain Rain
9:13 AM 46.9 °F - 44.1 °F 90% 29.77 in 1.8 mi ENE 6.9 mph - 0.07 in Rain Rain
9:36 AM 46.0 °F 43.1 °F 44.1 °F 93% 29.78 in 1.0 mi ENE 5.8 mph - 0.23 in Rain Heavy Rain
9:48 AM 46.4 °F 39.5 °F 44.6 °F 93% 29.76 in 1.0 mi East 17.3 mph - 0.33 in Rain Heavy Rain
9:53 AM 46.0 °F 39.6 °F 44.1 °F 93% 29.74 in 1.2 mi East 15.0 mph - 0.36 in Rain Rain
10:33 AM 46.9 °F - 45.0 °F 93% 29.75 in 1.8 mi East 13.8 mph - 0.08 in Rain Light Rain
10:40 AM 46.9 °F - 45.0 °F 93% 29.75 in 3.0 mi East 12.7 mph - 0.09 in Rain Light Rain
10:53 AM 48.0 °F - 45.0 °F 89% 29.72 in 4.0 mi East 18.4 mph - 0.09 in   Overcast
11:06 AM 48.0 °F - 46.0 °F 93% 29.71 in 2.0 mi East 20.7 mph - 0.00 in Rain Light Rain
11:21 AM 48.0 °F - 46.0 °F 93% 29.67 in 3.0 mi East 25.3 mph 35.7 mph 0.00 in   Overcast
11:40 AM 48.9 °F - 46.0 °F 90% 29.70 in 5.0 mi East 18.4 mph 26.5 mph 0.00 in   Overcast
11:53 AM 48.9 °F - 46.9 °F 93% 29.71 in 6.0 mi ESE 19.6 mph 26.5 mph 0.00 in   Overcast
12:53 PM 52.0 °F - 48.9 °F 89% 29.72 in 7.0 mi East 17.3 mph - N/A   Overcast
1:53 PM 54.0 °F - 51.1 °F 90% 29.67 in 5.0 mi East 17.3 mph - N/A   Overcast
2:53 PM 54.0 °F - 51.1 °F 90% 29.73 in 4.0 mi East 10.4 mph - N/A   Overcast
3:53 PM 55.0 °F - 52.0 °F 89% 29.72 in 3.0 mi East 16.1 mph - N/A   Overcast
4:53 PM 55.9 °F - 53.1 °F 90% 29.68 in 4.0 mi East 15.0 mph - N/A   Overcast
5:25 PM 57.0 °F - 54.0 °F 89% 29.62 in 3.0 mi ESE 25.3 mph - N/A   Scattered Clouds
6:53 PM 62.1 °F - 57.0 °F 84% 29.63 in 6.0 mi SE 9.2 mph - N/A   Haze
7:53 PM 61.0 °F - 57.0 °F 87% 29.63 in 6.0 mi East 11.5 mph - N/A   Clear
8:53 PM 57.9 °F - 55.0 °F 90% 29.62 in 5.0 mi East 10.4 mph - N/A   Clear
9:37 PM 55.9 °F - 54.0 °F 93% 29.62 in 4.0 mi ESE 10.4 mph - N/A   Partly Cloudy
9:53 PM 55.9 °F - 54.0 °F 93% 29.61 in 3.0 mi East 10.4 mph - N/A   Clear
10:53 PM 55.9 °F - 54.0 °F 93% 29.61 in 5.0 mi SE 5.8 mph - N/A   Partly Cloudy
11:23 PM 63.0 °F - 55.0 °F 75% 29.62 in 10.0 mi SSE 10.4 mph 21.9 mph N/A Thunderstorm Overcast
11:53 PM 62.1 °F - 57.0 °F 84% 29.60 in 4.0 mi South 10.4 mph 28.8 mph 0.09 in Rain , Thunderstorm Rain